| time (UTC) | temp F | wind direction | speed knots | gust knots | rain 1hr in | rain 24hr in | rain mn in | humidity % | barometer mb |
| 20260508123027 | 69 | 92 | 2.6 | 7.8 | 0.00 | 0.22 | 0.01 | 73 | 1011.9 |
| 20260508122104 | 70 | 68 | 2.6 | 7.0 | 0.00 | 0.22 | 0.01 | 71 | 1011.9 |
| 20260508121022 | 70 | 69 | 1.7 | 3.5 | 0.00 | 0.22 | 0.01 | 72 | 1012.0 |
| 20260508120018 | 68 | 59 | 2.6 | 6.1 | 0.00 | 0.22 | 0.01 | 75 | 1012.2 |
| 20260508115015 | 67 | 64 | 1.7 | 5.2 | 0.00 | 0.22 | 0.01 | 79 | 1012.2 |
| 20260508114112 | 66 | 77 | 1.7 | 6.1 | 0.00 | 0.22 | 0.01 | 81 | 1012.3 |
| 20260508113110 | 66 | 101 | 2.6 | 7.8 | 0.00 | 0.22 | 0.01 | 78 | 1012.1 |
| 20260508112127 | 66 | 52 | 0.9 | 3.5 | 0.00 | 0.22 | 0.01 | 78 | 1012.2 |
| 20260508111104 | 66 | 77 | 0.9 | 3.5 | 0.00 | 0.22 | 0.01 | 78 | 1012.4 |
| 20260508110101 | 66 | 45 | 1.7 | 5.2 | 0.00 | 0.22 | 0.01 | 78 | 1012.4 |
| 20260508105058 | 67 | 81 | 2.6 | 9.6 | 0.00 | 0.22 | 0.01 | 76 | 1012.5 |
| 20260508104055 | 67 | 86 | 3.5 | 7.0 | 0.00 | 0.22 | 0.01 | 74 | 1012.3 |
| 20260508103052 | 67 | 86 | 1.7 | 6.1 | 0.00 | 0.22 | 0.01 | 75 | 1012.3 |
| 20260508102049 | 66 | 64 | 2.6 | 6.1 | 0.00 | 0.22 | 0.01 | 76 | 1012.4 |
| 20260508101106 | 67 | 79 | 1.7 | 5.2 | 0.00 | 0.22 | 0.01 | 75 | 1012.4 |
| 20260508100043 | 67 | 62 | 2.6 | 5.2 | 0.00 | 0.22 | 0.01 | 76 | 1012.4 |
| 20260508095121 | 66 | 103 | 3.5 | 9.6 | 0.00 | 0.22 | 0.01 | 77 | 1012.4 |
| 20260508094037 | 66 | 68 | 2.6 | 7.0 | 0.00 | 0.22 | 0.01 | 78 | 1012.6 |
| 20260508093034 | 65 | 60 | 2.6 | 7.0 | 0.00 | 0.22 | 0.01 | 81 | 1012.5 |
| 20260508092031 | 64 | 64 | 2.6 | 6.1 | 0.00 | 0.22 | 0.01 | 83 | 1012.4 |
| 20260508091028 | 63 | 49 | 1.7 | 5.2 | 0.00 | 0.22 | 0.01 | 84 | 1012.5 |
| 20260508090025 | 63 | 98 | 1.7 | 5.2 | 0.00 | 0.22 | 0.01 | 84 | 1012.6 |
| 20260508085022 | 63 | 52 | 1.7 | 3.5 | 0.00 | 0.22 | 0.01 | 84 | 1012.4 |
| 20260508084018 | 63 | 52 | 0.9 | 3.5 | 0.00 | 0.22 | 0.01 | 86 | 1012.4 |
| 20260508083036 | 61 | 49 | 1.7 | 7.8 | 0.00 | 0.22 | 0.01 | 88 | 1012.3 |
| 20260508082113 | 61 | 45 | 3.5 | 7.0 | 0.00 | 0.22 | 0.01 | 89 | 1012.4 |
| 20260508081110 | 60 | 45 | 1.7 | 6.1 | 0.00 | 0.22 | 0.01 | 91 | 1012.4 |
| 20260508080107 | 60 | 42 | 1.7 | 3.5 | 0.00 | 0.22 | 0.01 | 92 | 1012.3 |
| 20260508075124 | 59 | 31 | 1.7 | 7.0 | 0.00 | 0.22 | 0.01 | 95 | 1012.2 |
| 20260508074101 | 59 | 45 | 2.6 | 5.2 | 0.00 | 0.22 | 0.01 | 96 | 1012.0 |
| 20260508073058 | 59 | 38 | 1.7 | 6.1 | 0.00 | 0.22 | 0.01 | 97 | 1012.1 |
| 20260508072055 | 58 | 87 | 1.7 | 6.1 | 0.00 | 0.22 | 0.01 | 98 | 1012.1 |
| 20260508071052 | 58 | 45 | 1.7 | 3.5 | 0.00 | 0.22 | 0.01 | 99 | 1011.9 |
| 20260508070109 | 58 | 45 | 0.9 | 3.5 | 0.00 | 0.22 | 0.01 | 99 | 1011.9 |
| 20260508065046 | 57 | 45 | 0.9 | 3.5 | 0.00 | 0.22 | 0.01 | 99 | 1011.7 |
| 20260508064043 | 57 | 45 | 0.0 | 1.7 | 0.00 | 0.22 | 0.01 | 99 | 1011.7 |
| 20260508063040 | 57 | 45 | 0.0 | 1.7 | 0.00 | 0.22 | 0.01 | 99 | 1011.6 |
| 20260508062037 | 57 | 0.0 | 1.7 | 0.00 | 0.22 | 0.01 | 99 | 1011.7 | |
| 20260508061034 | 57 | 45 | 0.0 | 1.7 | 0.00 | 0.22 | 0.01 | 99 | 1011.5 |
| 20260508060031 | 57 | 45 | 0.0 | 1.7 | 0.00 | 0.22 | 0.01 | 99 | 1011.3 |
| 20260508055028 | 57 | 0.0 | 1.7 | 0.00 | 0.22 | 0.01 | 99 | 1011.4 | |
| 20260508054026 | 57 | 0.0 | 0.0 | 0.00 | 0.22 | 0.01 | 99 | 1011.4 | |
| 20260508053104 | 56 | 0.0 | 0.0 | 0.00 | 0.22 | 0.01 | 99 | 1011.2 | |
| 20260508052019 | 56 | 0.0 | 0.0 | 0.00 | 0.22 | 0.01 | 99 | 1010.8 | |
| 20260508051016 | 55 | 23 | 0.0 | 1.7 | 0.00 | 0.22 | 0.01 | 99 | 1010.4 |
| 20260508050113 | 55 | 0.0 | 0.0 | 0.00 | 0.22 | 0.01 | 99 | 1010.2 | |
| 20260508045110 | 55 | 0.0 | 1.7 | 0.00 | 0.22 | 0.01 | 99 | 1010.0 | |
| 20260508044107 | 55 | 0.0 | 0.0 | 0.00 | 0.22 | 0.01 | 99 | 1010.0 | |
| 20260508043104 | 55 | 0.0 | 1.7 | 0.00 | 0.22 | 0.01 | 99 | 1009.9 | |
| 20260508042101 | 56 | 0.0 | 1.7 | 0.00 | 0.22 | 0.01 | 99 | 1010.1 | |
| 20260508041058 | 56 | 0.0 | 0.0 | 0.00 | 0.22 | 0.01 | 99 | 1010.0 | |
| 20260508040116 | 56 | 23 | 0.0 | 1.7 | 0.00 | 0.22 | 0.01 | 99 | 1009.9 |
| 20260508035052 | 56 | 0.0 | 0.0 | 0.00 | 0.22 | 0.01 | 99 | 1009.9 | |
| 20260508034049 | 56 | 23 | 0.0 | 1.7 | 0.00 | 0.22 | 0.01 | 99 | 1010.1 |
| 20260508033046 | 56 | 0.0 | 0.0 | 0.00 | 0.22 | 0.01 | 99 | 1010.3 | |
| 20260508032043 | 56 | 0.0 | 0.0 | 0.00 | 0.22 | 0.01 | 99 | 1010.3 | |
| 20260508031100 | 56 | 0.0 | 0.0 | 0.00 | 0.22 | 0.01 | 99 | 1010.3 | |
| 20260508030038 | 56 | 0.0 | 0.0 | 0.00 | 0.22 | 0.01 | 99 | 1010.3 | |
| 20260508025034 | 56 | 0.0 | 0.0 | 0.00 | 0.22 | 0.01 | 99 | 1010.3 | |
| 20260508024031 | 56 | 0.0 | 0.0 | 0.00 | 0.22 | 0.01 | 99 | 1010.4 | |
| 20260508023028 | 56 | 0.0 | 0.0 | 0.00 | 0.22 | 0.01 | 99 | 1010.3 | |
| 20260508022045 | 57 | 0.0 | 1.7 | 0.00 | 0.22 | 0.01 | 99 | 1010.3 | |
| 20260508021022 | 56 | 0.0 | 1.7 | 0.00 | 0.22 | 0.01 | 99 | 1010.3 | |
| 20260508020019 | 57 | 23 | 0.0 | 1.7 | 0.00 | 0.22 | 0.01 | 99 | 1010.1 |
| 20260508015057 | 57 | 30 | 0.0 | 1.7 | 0.00 | 0.22 | 0.01 | 99 | 1010.1 |
| 20260508014113 | 57 | 45 | 0.0 | 1.7 | 0.00 | 0.22 | 0.01 | 99 | 1010.3 |
| 20260508013151 | 57 | 45 | 0.0 | 1.7 | 0.00 | 0.22 | 0.01 | 99 | 1010.3 |
| 20260508012107 | 57 | 0.0 | 1.7 | 0.00 | 0.22 | 0.01 | 99 | 1010.4 | |
| 20260508011104 | 57 | 0.0 | 0.0 | 0.00 | 0.22 | 0.01 | 99 | 1010.4 | |
| 20260508010122 | 57 | 45 | 0.0 | 1.7 | 0.00 | 0.22 | 0.01 | 99 | 1010.5 |
| 20260508005058 | 57 | 0.0 | 0.0 | 0.00 | 0.22 | 0.01 | 99 | 1010.5 | |
| 20260508004055 | 57 | 45 | 0.0 | 1.7 | 0.01 | 0.22 | 0.01 | 99 | 1010.7 |
| 20260508003113 | 57 | 0.0 | 1.7 | 0.01 | 0.22 | 0.01 | 99 | 1010.8 | |
| 20260508002049 | 57 | 45 | 0.0 | 1.7 | 0.01 | 0.22 | 0.01 | 99 | 1011.0 |
| 20260508001107 | 56 | 45 | 0.0 | 1.7 | 0.01 | 0.22 | 0.01 | 99 | 1011.0 |
| 20260508000104 | 56 | 24 | 0.0 | 1.7 | 0.01 | 0.22 | 0.01 | 99 | 1011.1 |
| 20260507235101 | 56 | 0.0 | 1.7 | 0.01 | 0.22 | 0.01 | 99 | 1011.1 | |
| 20260507234037 | 56 | 338 | 0.0 | 1.7 | 0.00 | 0.21 | 0.00 | 99 | 1011.3 |
| 20260507233034 | 56 | 0.0 | 1.7 | 0.00 | 0.21 | 0.00 | 99 | 1011.6 | |
| 20260507232032 | 56 | 0.0 | 1.7 | 0.00 | 0.21 | 0.00 | 99 | 1011.6 | |
| 20260507231028 | 56 | 45 | 0.0 | 1.7 | 0.00 | 0.21 | 0.00 | 99 | 1011.6 |
| 20260507230026 | 57 | 248 | 0.0 | 5.2 | 0.00 | 0.21 | 0.00 | 99 | 1011.8 |
| 20260507225023 | 57 | 315 | 0.0 | 1.7 | 0.00 | 0.21 | 0.00 | 99 | 1011.9 |
| 20260507224020 | 57 | 0.0 | 0.0 | 0.00 | 0.21 | 0.00 | 99 | 1011.7 | |
| 20260507223017 | 57 | 0.0 | 1.7 | 0.00 | 0.21 | 0.00 | 99 | 1011.8 | |
| 20260507222113 | 57 | 0.0 | 1.7 | 0.00 | 0.21 | 0.00 | 99 | 1011.6 | |
| 20260507221110 | 57 | 0.0 | 1.7 | 0.00 | 0.21 | 0.00 | 99 | 1011.6 | |
| 20260507220107 | 57 | 0.0 | 0.0 | 0.00 | 0.21 | 0.00 | 99 | 1011.4 | |
| 20260507215104 | 57 | 0.0 | 1.7 | 0.01 | 0.21 | 0.21 | 99 | 1011.3 | |
| 20260507214102 | 57 | 0.0 | 1.7 | 0.01 | 0.21 | 0.21 | 99 | 1011.3 | |
| 20260507213058 | 57 | 315 | 0.0 | 1.7 | 0.01 | 0.21 | 0.21 | 99 | 1011.5 |
| 20260507212055 | 58 | 0.0 | 0.0 | 0.01 | 0.21 | 0.21 | 99 | 1011.5 | |
| 20260507211053 | 58 | 0.0 | 0.0 | 0.01 | 0.21 | 0.21 | 99 | 1011.7 | |
| 20260507210049 | 58 | 315 | 0.9 | 1.7 | 0.01 | 0.21 | 0.21 | 99 | 1011.6 |
| 20260507205046 | 58 | 315 | 0.0 | 1.7 | 0.00 | 0.20 | 0.20 | 99 | 1011.6 |
| 20260507204043 | 58 | 0.0 | 0.0 | 0.01 | 0.20 | 0.20 | 99 | 1011.6 | |
| 20260507203041 | 58 | 315 | 0.9 | 1.7 | 0.01 | 0.20 | 0.20 | 99 | 1011.6 |
| 20260507202037 | 58 | 315 | 0.9 | 1.7 | 0.01 | 0.20 | 0.20 | 99 | 1011.5 |
| 20260507201035 | 58 | 0 | 1.7 | 3.5 | 0.01 | 0.20 | 0.20 | 99 | 1011.3 |
| 20260507200031 | 58 | 45 | 0.9 | 1.7 | 0.01 | 0.20 | 0.20 | 99 | 1011.2 |
| 20260507195049 | 58 | 0.0 | 0.0 | 0.02 | 0.20 | 0.20 | 99 | 1011.1 | |
| 20260507194026 | 58 | 90 | 0.0 | 1.7 | 0.01 | 0.19 | 0.19 | 99 | 1011.0 |
| 20260507193023 | 59 | 60 | 0.9 | 3.5 | 0.02 | 0.19 | 0.19 | 99 | 1010.8 |
| 20260507192020 | 59 | 0.0 | 0.0 | 0.02 | 0.19 | 0.19 | 99 | 1010.4 | |
| 20260507191017 | 59 | 0.0 | 1.7 | 0.02 | 0.19 | 0.19 | 99 | 1010.5 | |
| 20260507190114 | 59 | 0.0 | 1.7 | 0.02 | 0.19 | 0.19 | 99 | 1010.5 | |
| 20260507185111 | 59 | 0.0 | 0.0 | 0.02 | 0.18 | 0.18 | 99 | 1010.4 | |
| 20260507184228 | 59 | 0.0 | 0.0 | 0.02 | 0.18 | 0.18 | 98 | 1010.3 | |
| 20260507183105 | 59 | 45 | 0.0 | 1.7 | 0.01 | 0.17 | 0.17 | 98 | 1010.1 |
| 20260507182102 | 59 | 45 | 0.0 | 1.7 | 0.01 | 0.17 | 0.17 | 98 | 1009.8 |
| 20260507181120 | 59 | 0.0 | 0.0 | 0.02 | 0.17 | 0.17 | 98 | 1009.8 | |
| 20260507180056 | 59 | 30 | 0.0 | 3.5 | 0.06 | 0.17 | 0.17 | 98 | 1009.8 |
| 20260507175053 | 59 | 45 | 0.0 | 1.7 | 0.06 | 0.15 | 0.15 | 98 | 1009.6 |
| 20260507174050 | 59 | 45 | 0.0 | 3.5 | 0.09 | 0.15 | 0.15 | 98 | 1009.6 |
| 20260507173047 | 59 | 45 | 0.9 | 3.5 | 0.11 | 0.15 | 0.15 | 97 | 1009.6 |
| 20260507172044 | 59 | 30 | 0.9 | 1.7 | 0.13 | 0.15 | 0.15 | 97 | 1009.9 |
| 20260507171041 | 60 | 38 | 0.9 | 3.5 | 0.12 | 0.14 | 0.14 | 97 | 1009.9 |
| 20260507170038 | 60 | 45 | 0.0 | 1.7 | 0.08 | 0.11 | 0.11 | 97 | 1010.0 |
| 20260507165055 | 60 | 45 | 0.9 | 3.5 | 0.08 | 0.09 | 0.09 | 96 | 1010.0 |
| 20260507164052 | 60 | 66 | 0.9 | 3.5 | 0.06 | 0.06 | 0.06 | 95 | 1010.1 |
| 20260507163028 | 60 | 45 | 0.9 | 3.5 | 0.05 | 0.05 | 0.05 | 95 | 1010.1 |
| 20260507162025 | 61 | 50 | 1.7 | 3.5 | 0.02 | 0.02 | 0.02 | 94 | 1009.9 |
| 20260507161042 | 61 | 70 | 1.7 | 7.0 | 0.02 | 0.02 | 0.02 | 93 | 1009.8 |
| 20260507160020 | 62 | 50 | 1.7 | 3.5 | 0.02 | 0.02 | 0.02 | 92 | 1009.8 |
| 20260507155019 | 63 | 61 | 2.6 | 7.0 | 0.01 | 0.01 | 0.01 | 91 | 1009.8 |
| 20260507154114 | 63 | 52 | 0.9 | 3.5 | 0.00 | 0.00 | 0.00 | 90 | 1009.8 |
| 20260507153131 | 63 | 52 | 1.7 | 3.5 | 0.00 | 0.01 | 0.00 | 89 | 1009.7 |
| 20260507152108 | 64 | 76 | 3.5 | 7.0 | 0.00 | 0.01 | 0.00 | 83 | 1009.6 |
| 20260507151105 | 66 | 106 | 5.2 | 13.0 | 0.00 | 0.01 | 0.00 | 75 | 1009.5 |
| 20260507145059 | 67 | 45 | 4.3 | 11.3 | 0.00 | 0.01 | 0.00 | 71 | 1009.4 |
| 20260507144056 | 67 | 16 | 4.3 | 13.0 | 0.00 | 0.02 | 0.00 | 72 | 1009.6 |
| 20260507143053 | 68 | 45 | 3.5 | 7.0 | 0.00 | 0.07 | 0.00 | 71 | 1009.5 |
| 20260507142050 | 68 | 56 | 3.5 | 13.0 | 0.00 | 0.17 | 0.00 | 69 | 1009.7 |
| 20260507141047 | 69 | 79 | 3.5 | 9.6 | 0.00 | 0.30 | 0.00 | 69 | 1009.8 |
| 20260507140044 | 69 | 85 | 3.5 | 7.8 | 0.00 | 0.35 | 0.00 | 68 | 1009.8 |
| 20260507135041 | 69 | 51 | 4.3 | 11.3 | 0.00 | 0.66 | 0.00 | 67 | 1009.9 |
| 20260507134038 | 70 | 103 | 2.6 | 7.0 | 0.00 | 0.83 | 0.00 | 66 | 1009.8 |
| 20260507133035 | 70 | 56 | 4.3 | 9.6 | 0.00 | 0.94 | 0.00 | 66 | 1009.7 |
| 20260507132032 | 70 | 49 | 2.6 | 7.8 | 0.00 | 0.98 | 0.00 | 66 | 1010.0 |
| 20260507131049 | 70 | 42 | 2.6 | 6.1 | 0.00 | 0.98 | 0.00 | 67 | 1010.2 |
| 20260507130026 | 69 | 82 | 2.6 | 6.1 | 0.00 | 0.98 | 0.00 | 68 | 1010.3 |
| 20260507125023 | 68 | 64 | 4.3 | 11.3 | 0.00 | 0.98 | 0.00 | 68 | 1010.4 |
| 20260507124020 | 68 | 46 | 4.3 | 9.6 | 0.00 | 0.98 | 0.00 | 68 | 1010.5 |